Probability
0 0 0 0 0 0 0 0 0 0 0 0 0 0 0 0 0 0 0 0 0 0 0 0 0 0 0 0 0 0 0 0 0 0 0 0 0 0 0 0 0 0 0 0 0 0 0 0 0
0 0 0 0 0 0 0 0 0 0 0 0 0 0 0 0 0 0 0 0 0 0 0 0 0 0 0 0 0 0 0 0 0 0 0 0 0 0 0 0 0 0 0 0 0 0 0 0 0
0 0 0 0 0 0 0 0 0 0 0 0 0 0 0 0 0 0 0 0 0 0 0 0 0 0 0 0 0 0 0 0 0 0 0 0 0 0 0 0 0 0 0 0 0 0 0 0 0
0 0 0 0 0 0 0 0 0 0 0 0 0 0 0 0 0 0 0 0 0 0 0 0 0 0 0 0 0 0 0 0 0 0 0 0 0 0 0 0 0 0 0 0 0 0 0 0 0
0 0 0 0 0 0 0 0 0 0 0 0 0 0 0 0 0 0 0 0 0 0 0 0 0 0 0 0 0 0 0 0 0 0 0 0 0 0 0 0 0 0 0 0 0 0 0 0 0
0 0 0 0 0 0 0 0 0 0 0 0 0 0 0 0 0 0 0 0 0 1 1 1 0 0 0 0 0 0 0 0 0 0 0 0 0 0 0 0 0 0 0 0 0 0 0 0 0
0 0 0 0 0 0 0 0 0 0 0 0 0 0 0 0 0 0 0 0 1 5 6 3 0 0 0 0 0 0 0 0 0 0 0 0 0 0 0 0 0 0 0 0 0 0 0 0 0
0 0 0 0 0 0 0 0 0 0 0 0 0 0 0 0 0 0 0 0 1 9 13 7 0 0 0 0 0 0 0 0 0 0 0 0 0 0 0 0 0 0 0 0 1 1 1 0 0
0 0 0 0 0 0 0 0 0 0 0 0 0 0 0 0 0 0 0 0 3 12 18 11 3 1 0 0 0 0 0 0 0 0 0 0 0 0 3 10 15 16 14 13 12 9 6 2 1
0 0 0 0 0 0 0 0 0 0 0 0 1 2 2 0 0 0 0 3 11 22 25 19 14 11 5 2 3 2 0 0 0 0 4 8 6 2 9 30 46 48 41 32 24 18 11 4 1
0 0 0 0 0 0 0 0 0 0 0 0 3 6 6 4 3 1 1 13 35 47 41 35 41 42 25 14 16 11 5 6 9 9 14 25 25 15 20 49 73 76 64 42 26 22 16 6 2
0 0 0 0 0 0 0 0 0 0 0 1 4 9 11 12 12 9 8 28 64 77 65 61 73 77 62 45 42 36 25 27 34 37 38 49 55 43 43 67 87 87 76 58 41 39 34 22 16
0 0 0 0 0 0 0 0 0 0 0 0 2 6 11 15 24 30 34 54 84 94 86 84 92 96 90 82 77 69 60 59 66 72 73 75 80 75 73 86 95 93 87 80 74 69 66 58 48
0 0 0 0 0 0 0 0 0 0 0 0 0 2 6 13 29 54 71 83 95 99 97 97 98 100 99 99 97 93 89 87 89 93 95 94 93 93 93 96 98 97 94 91 92 91 89 85 79
0 0 0 0 0 0 0 0 0 0 0 0 0 1 9 22 37 61 86 98 100 100 100 100 100 100 100 100 100 100 99 99 98 99 99 99 98 99 100 100 100 100 98 97 97 98 96 93 90
0 0 0 0 0 0 0 0 0 0 0 0 1 5 23 48 59 68 87 98 100 100 100 100 100 100 100 100 100 100 99 99 99 100 100 100 100 100 100 100 100 100 100 100 100 98 96 93 90
0 0 0 0 0 0 0 0 0 0 0 1 5 14 40 70 84 87 94 99 100 100 100 100 99 100 100 100 100 99 97 97 98 99 99 99 100 100 100 100 100 100 100 100 100 98 97 94 92
0 0 0 0 0 0 0 0 0 0 0 3 14 32 56 79 94 98 99 99 100 100 100 100 100 100 100 100 100 100 98 98 99 99 99 99 100 100 100 100 100 100 100 100 100 99 98 96 95
0 0 0 0 0 0 0 0 0 0 1 7 25 51 70 83 93 96 96 97 99 100 100 100 100 100 100 100 100 100 100 100 100 100 99 99 100 100 100 100 100 100 100 100 100 100 99 98 97
0 0 0 0 0 0 0 0 0 0 4 14 35 57 70 78 83 84 82 83 87 92 95 98 99 100 100 100 100 100 100 100 100 100 100 100 100 100 100 100 100 100 100 100 100 100 99 97 95
0 0 0 0 0 0 0 0 0 3 14 28 40 48 52 54 55 54 52 53 57 64 72 81 92 98 100 100 100 100 100 100 100 100 100 100 100 100 100 100 99 99 99 98 97 96 95 92 89
0 0 0 0 0 0 0 0 1 8 26 40 40 32 27 24 22 21 21 21 23 27 36 52 72 88 96 100 100 100 100 100 100 100 100 100 100 100 100 98 97 97 97 95 92 90 87 81 75
0 0 0 0 0 0 0 0 1 10 29 41 33 18 10 6 4 4 4 4 4 5 11 28 50 72 89 97 98 99 100 100 100 100 100 100 100 100 98 96 95 94 93 90 86 79 71 61 52
0 0 0 0 0 0 0 0 1 7 20 26 20 9 3 1 0 0 0 0 1 1 4 17 41 66 83 91 93 95 97 98 99 99 100 100 100 100 97 93 91 90 86 80 71 58 43 32 25
0 0 0 0 0 0 0 0 1 4 8 10 7 3 1 0 0 0 1 1 2 3 6 20 44 69 81 86 88 89 91 92 94 97 98 99 100 100 96 90 86 82 74 63 48 32 18 9 6
0 0 0 0 0 0 0 0 0 1 2 2 2 0 0 0 0 0 1 2 3 7 15 30 53 72 79 80 81 82 82 84 87 90 93 95 97 97 94 87 80 72 61 46 30 16 6 1 0
0 0 0 0 0 0 0 0 0 0 1 1 1 0 0 0 0 0 1 1 4 12 24 37 55 68 69 64 62 63 65 70 75 78 81 84 87 89 88 79 67 56 46 33 20 9 2 0 0
0 0 0 0 0 0 0 0 0 0 0 0 0 0 0 0 0 0 2 4 8 15 24 35 47 55 52 45 39 38 41 46 52 56 59 63 68 72 71 59 46 36 28 19 10 4 1 0 0
0 0 0 0 0 0 0 0 0 0 0 0 0 0 0 0 0 1 5 9 13 16 21 30 38 41 38 31 23 20 20 20 23 27 31 36 40 45 42 33 24 17 12 7 3 1 0 0 0
0 0 0 0 0 0 0 0 0 0 0 0 0 0 1 1 1 1 5 12 16 17 19 26 32 33 31 24 16 11 8 6 7 10 14 18 21 24 23 17 11 7 4 2 1 0 0 0 0
Wind_Speed
9 11 10 8 7 5 5 8 12 14 14 13 10 8 10 16 12 8 11 17 23 21 19 18 16 15 13 12 11 12 12 12 12 11 10 8 7 6 6 5 5 5 5 6 6 6 6 6 7
11 14 10 7 5 3 3 12 15 12 9 8 7 5 9 15 11 10 13 19 23 20 18 17 17 15 14 13 12 12 12 12 12 11 10 9 7 6 6 5 4 4 4 4 4 5 4 4 5
13 17 8 8 4 3 2 12 10 10 9 7 6 10 11 10 9 8 15 19 21 18 16 18 19 17 15 14 12 12 12 12 11 11 10 9 8 7 7 6 5 5 4 4 4 4 4 4 4
10 8 8 9 4 2 7 9 6 10 9 6 5 10 13 7 4 12 18 19 20 18 17 19 18 17 16 15 13 12 12 11 11 10 10 9 9 8 7 7 6 5 5 5 4 4 4 4 5
10 8 11 8 5 4 8 7 5 10 8 8 6 13 12 6 8 16 16 18 18 18 17 18 18 17 16 15 14 13 12 11 11 10 10 9 9 8 8 7 7 6 5 5 6 6 6 5 6
8 10 11 6 5 3 6 5 2 7 5 5 6 11 10 8 11 14 15 16 17 18 18 17 18 17 16 15 13 13 12 11 11 10 10 9 9 8 8 8 8 8 7 7 7 7 7 7 8
11 12 15 12 7 2 4 2 1 3 3 9 6 8 11 11 12 14 14 13 16 18 19 16 15 14 15 14 14 13 12 11 11 10 10 10 10 9 9 9 9 9 9 9 9 9 9 9 9
10 11 17 14 8 1 5 4 1 3 4 6 4 8 12 13 13 14 13 11 14 17 19 16 15 14 12 12 14 13 13 12 11 11 11 11 11 12 12 12 12 12 11 11 11 11 12 11 11
12 11 14 12 9 4 8 6 4 1 4 3 1 8 14 16 15 14 12 11 11 14 17 16 16 14 13 13 14 14 13 13 12 11 13 12 10 12 12 16 16 16 15 14 14 14 14 13 14
10 11 16 9 9 9 7 5 7 6 4 5 3 12 15 15 13 13 13 13 11 11 15 14 15 14 12 12 11 10 10 11 10 9 12 10 9 8 10 15 18 19 19 17 16 15 14 12 10
13 15 17 15 10 9 9 9 7 8 5 3 2 7 11 15 12 11 12 12 11 9 11 13 12 13 12 7 9 8 7 8 11 12 10 9 8 7 7 5 10 12 15 12 12 13 10 10 9
15 14 15 12 12 12 11 11 10 11 6 5 8 7 9 13 13 11 11 11 11 10 9 11 12 11 8 7 6 8 7 6 8 11 11 9 6 6 5 4 6 8 8 9 8 6 10 10 9
11 13 16 14 12 12 13 14 13 13 8 2 5 6 9 10 12 12 11 10 11 10 10 8 9 9 8 5 4 6 6 6 7 7 10 9 6 7 7 4 4 4 4 6 7 6 6 7 6
12 11 12 14 15 14 14 14 15 16 10 1 0 3 7 8 9 11 11 9 10 11 11 9 8 9 7 6 4 4 5 5 6 5 9 11 7 6 5 4 4 4 5 4 4 5 5 5 5
9 13 16 17 18 15 12 14 16 17 10 3 5 5 4 2 2 7 10 10 10 10 9 8 9 9 8 8 8 8 8 8 6 5 6 9 8 6 5 4 4 5 5 5 3 4 3 5 5
13 15 17 19 15 8 6 12 13 8 6 3 5 6 1 3 3 1 5 7 7 8 9 8 10 11 10 8 7 8 9 8 6 5 5 8 8 7 6 5 5 4 4 3 3 3 4 4 4
16 17 18 16 9 6 7 10 8 2 2 3 4 4 3 5 1 3 3 2 3 2 4 7 7 6 9 10 8 8 7 6 5 4 4 6 9 9 7 6 5 4 3 3 4 3 3 4 4
12 13 11 9 3 2 5 12 14 6 2 3 3 3 3 2 2 3 4 4 1 2 2 4 5 5 4 5 6 6 8 7 5 5 5 5 5 7 7 6 6 5 4 4 4 4 4 4 4
13 13 14 12 8 6 8 13 16 13 7 3 1 4 4 4 7 6 4 5 3 1 1 3 3 4 4 4 5 5 6 6 6 5 6 6 6 6 5 5 5 5 5 6 6 5 5 4 3
11 11 12 12 7 8 11 14 15 15 12 5 3 3 3 4 5 4 2 2 4 5 5 4 3 3 4 4 4 5 5 5 6 6 6 5 5 5 6 6 5 6 6 7 7 6 4 4 4
10 10 12 14 16 16 18 20 19 18 10 8 7 5 5 6 6 4 3 3 3 4 4 5 5 4 4 5 4 5 4 5 6 7 6 6 6 6 7 7 7 6 7 7 7 7 8 6 4
9 11 13 13 14 14 17 17 16 10 7 10 8 7 6 6 5 4 3 3 3 3 3 2 3 4 4 5 5 7 6 7 8 6 6 6 6 7 7 8 7 7 6 6 7 7 6 6 4
9 12 14 16 16 18 17 16 13 3 6 9 7 5 4 3 3 2 2 2 3 4 4 3 3 3 4 5 6 7 7 7 6 6 7 6 6 6 6 6 5 5 5 5 5 4 4 3 3
7 12 16 18 15 15 9 11 8 5 10 12 10 7 4 2 1 1 2 2 2 4 4 4 3 4 4 5 6 7 8 8 9 8 7 6 4 4 5 4 4 4 3 3 3 3 3 2 3
7 9 9 9 5 3 3 8 5 6 9 10 10 8 5 3 2 2 3 3 3 4 4 3 4 4 4 5 6 7 7 8 8 8 7 6 5 4 5 5 4 4 3 3 3 3 4 4 3
6 7 7 9 11 12 12 9 3 7 5 4 3 4 4 4 3 3 3 3 2 4 4 4 4 4 5 6 6 7 7 7 6 6 6 6 5 4 4 5 5 5 5 4 4 3 4 3 3
8 7 10 11 13 15 11 8 4 7 2 1 4 5 6 6 5 6 4 3 4 5 5 5 4 4 5 6 6 6 6 6 6 7 6 5 4 4 4 5 4 4 3 3 3 2 3 3 3
9 9 7 7 9 12 13 12 6 4 3 6 5 7 8 7 7 6 5 5 5 4 4 4 3 3 4 5 6 6 6 6 5 5 5 4 3 2 2 3 3 3 3 3 3 2 2 2 2
7 9 9 8 9 11 13 11 10 8 7 7 8 9 9 10 10 7 4 4 4 4 4 3 2 3 3 3 4 5 5 5 5 4 5 5 4 4 3 1 2 2 3 3 2 2 3 3 2
11 9 10 9 11 12 13 13 8 6 8 9 10 9 8 9 9 6 4 3 3 4 4 4 3 3 2 2 2 3 4 4 4 5 6 6 6 6 5 4 2 1 1 2 2 1 3 3 4
Wind_Direction
245 244 235 250 250 267 288 71 58 53 57 61 48 25 31 48 50 76 126 128 118 126 133 137 136 137 139 143 148 150 148 147 147 148 147 144 141 138 135 133 128 120 114 112 112 111 115 120 124
266 259 245 249 254 326 326 72 68 61 59 77 79 40 52 65 64 101 121 121 123 129 139 140 140 139 139 141 146 151 153 151 151 151 152 153 154 157 158 158 155 148 138 135 137 137 137 143 150
260 262 265 247 221 175 99 81 85 91 72 54 80 64 49 59 81 112 122 129 125 131 138 137 145 143 143 144 146 150 153 153 153 155 157 160 165 172 175 171 172 171 164 163 167 171 171 180 189
264 253 233 254 293 140 89 101 115 98 88 62 44 80 72 51 82 124 131 134 127 135 139 143 150 148 149 150 152 153 156 158 160 162 166 171 177 182 184 181 185 189 187 189 192 199 206 215 219
255 260 260 278 302 70 78 87 80 79 57 48 45 85 80 85 109 121 137 135 135 143 139 147 154 154 156 158 160 161 162 165 168 170 175 181 188 193 196 195 197 205 212 217 216 211 212 224 234
268 267 280 308 299 75 76 79 36 63 70 72 32 93 94 114 120 134 145 144 147 144 140 148 158 159 162 164 168 170 171 174 176 179 182 188 195 201 205 205 206 210 215 222 228 225 219 221 229
274 294 296 290 264 178 75 15 70 71 30 49 20 84 116 134 134 146 149 156 152 145 138 152 160 164 168 171 175 178 180 182 186 188 192 197 203 208 212 213 216 218 220 220 224 230 233 231 232
277 291 290 289 276 118 84 314 354 54 97 65 359 68 124 131 148 147 151 166 157 146 143 157 162 166 172 177 184 187 189 192 196 200 202 206 211 216 219 218 217 219 219 222 226 231 236 239 240
266 268 276 300 342 53 61 338 342 289 122 107 93 77 117 138 153 150 159 172 166 154 148 163 165 168 177 183 184 189 196 201 204 209 214 216 219 216 215 223 217 215 218 219 224 231 236 240 244
240 261 271 314 342 346 25 329 316 300 213 175 174 118 129 143 159 164 167 174 172 163 159 166 168 167 183 193 173 186 197 198 206 211 205 210 224 236 227 209 211 212 216 219 223 229 235 238 245
246 259 281 305 329 326 318 306 309 293 300 97 84 121 139 147 165 178 176 179 171 174 176 168 167 162 185 200 169 185 199 193 198 217 215 207 215 227 236 202 197 208 214 219 223 224 229 233 232
250 270 287 294 303 306 301 299 302 302 305 91 100 119 155 170 175 186 184 182 170 180 195 182 166 163 187 204 192 185 199 194 194 198 213 210 206 228 229 213 187 197 206 208 220 206 213 228 237
259 269 276 280 276 275 277 279 283 281 285 81 110 165 188 187 178 182 186 185 173 180 198 203 165 162 175 210 237 206 207 204 201 198 197 211 206 211 224 221 213 222 231 203 208 220 217 221 236
283 287 281 281 277 269 265 268 269 266 257 241 353 256 232 208 190 173 178 180 182 182 196 203 175 168 177 192 215 261 245 216 226 205 194 199 212 213 215 212 207 217 238 253 220 222 222 226 233
271 280 272 261 249 246 255 264 261 261 254 236 276 263 263 295 183 171 172 176 190 186 194 198 189 182 189 207 212 224 237 242 228 216 206 193 203 213 216 225 222 221 223 227 236 252 252 250 248
260 257 260 257 234 228 241 269 278 269 246 239 268 280 226 71 318 247 163 164 194 193 187 194 210 196 192 207 223 231 236 238 237 221 209 201 204 209 217 221 225 222 221 218 224 233 243 251 261
248 244 254 259 182 210 249 276 286 300 314 312 305 307 6 95 68 358 31 133 201 224 190 186 215 221 197 201 217 237 253 257 261 253 225 208 205 206 208 221 225 224 223 221 244 241 241 253 258
300 298 278 270 178 141 284 292 291 279 240 277 315 359 31 49 66 39 15 343 304 242 225 209 207 246 250 221 224 237 249 252 245 248 255 251 226 212 209 215 217 219 222 221 222 236 242 246 247
319 311 315 314 324 328 301 291 290 291 277 254 47 61 49 40 65 54 9 334 334 334 259 245 241 252 261 259 251 248 252 258 264 259 245 237 234 232 217 229 219 215 223 224 220 221 234 238 241
289 291 289 288 308 307 292 284 282 276 263 208 158 123 116 103 92 87 73 356 7 10 3 350 337 298 276 264 264 262 266 269 264 265 269 265 251 238 232 224 231 232 236 234 225 219 223 231 220
283 297 311 323 327 312 297 282 268 257 225 161 155 146 121 111 105 100 86 58 35 16 351 349 354 337 322 306 284 276 271 262 263 261 260 256 252 248 247 243 239 236 236 238 232 225 224 226 223
294 320 330 314 298 288 288 290 287 278 164 147 138 129 122 114 101 75 43 34 355 332 310 330 327 325 320 309 296 290 279 270 267 268 262 257 250 246 244 243 241 242 243 242 241 235 228 224 226
311 317 301 284 276 274 272 272 278 320 126 121 113 127 131 110 85 51 346 345 327 318 318 312 297 296 303 301 292 286 283 280 280 276 263 254 246 241 241 243 242 239 240 242 240 232 214 212 219
299 293 283 268 257 263 306 315 312 46 114 133 151 164 158 203 262 318 322 331 324 310 300 301 315 311 296 287 288 285 285 287 286 281 272 259 245 234 225 228 230 231 228 225 213 194 195 216 222
287 297 304 313 292 263 245 266 284 134 136 151 165 176 192 229 281 314 318 306 293 287 291 308 305 305 308 305 300 296 293 288 282 280 274 267 253 234 215 213 210 210 203 197 185 183 194 198 207
287 284 297 316 317 318 305 294 26 101 102 120 164 213 249 273 272 285 278 268 291 310 324 324 326 325 321 316 313 308 301 292 287 285 280 270 258 246 213 207 202 203 201 201 190 191 198 196 205
287 292 313 310 295 291 297 320 69 99 42 275 246 253 267 276 289 292 300 342 353 353 344 335 331 326 325 321 316 305 311 311 305 300 291 282 270 250 209 202 200 199 194 198 189 202 208 191 199
247 288 308 300 300 304 307 315 0 54 276 255 274 299 297 293 302 318 352 352 356 342 320 312 315 315 319 323 331 332 338 330 326 328 328 321 315 308 222 196 182 181 180 181 192 201 196 188 200
262 253 271 286 294 300 299 302 322 343 334 325 322 318 319 322 319 321 331 332 333 322 318 313 305 297 314 337 345 348 351 352 358 9 9 7 9 15 18 72 151 167 175 174 177 190 171 169 170
283 282 289 283 282 282 285 289 312 7 330 323 322 323 333 331 320 308 305 333 333 322 320 310 301 298 316 344 349 0 2 3 10 27 29 26 23 24 19 14 35 85 148 164 174 152 122 119 105